sat.trackr.live / text

‹ back to catalog

STARLINK-30101

NORAD 56301 · 2023-056R

PAYLOAD ACTIVE UNKNOWN

§ Identity

Operator
Country
US
Launch date
2023-04-19
Launch site
AFETR
Launch vehicle
Mass (kg)
RCS (m²)

Purposes: comms

External: N2YO · Heavens-Above · Gunter

§ Orbital elements

Epoch: 2026-05-24T23:41:04.252128Z

Period
94.28 min
Inclination
42.9999°
Eccentricity
0.0001429
Mean motion
15.27313017 rev/d
Perigee alt
482.9 km
Apogee alt
484.8 km
Semi-major
6,862.0 km
B*
2.6755e-4
RAAN
137.5922°
Arg perigee
267.3002°
Mean anomaly
92.7686°
Rev number
17,177

§ Raw data

STARLINK-301011 56301U 23056R   26144.98685477  .00007048  00000+0  26755-3 0  99982 56301  42.9999 137.5922 0001429 267.3002  92.7686 15.27313017171775

JSON: /api/v1/satellites/56301 · /tle

For live sub-satellite position, see the globe view (requires WebGL).

§ Visibility from observer

Set your observer location to see the next 7 days of passes ≥ 10°. The values pass through the URL so the page stays shareable.

No JS? Fill the form by hand. The geolocation button needs JavaScript.